Hourly Data Report for October 13, 2014

All times are specified in Local Standard Time (LST). Add 1 hour to adjust for Daylight Saving Time where and when it is observed.

KITCHENER/WATERLOO
ONTARIO

43°27'39.000" N
80°22'43.000" W
321.60 m
6144239
71368
YKF

Download Data

Hourly Data (October 2014)
Hourly Data Report for October 13, 2014
Temp Definition
°C
Dew Point Temp Definition
°C
Rel Hum Definition
%
Wind Dir Definition
10's deg

Wind Spd Definition
km/h
Visibility Definition
km
Stn Press Definition
kPa
Hmdx Definition


Wind Chill Definition


Weather Definition


TIME
00:00 Legend Double Dagger 4.6 4.2 97   0 8.1 98.07     Fog
01:00 Legend Double Dagger 5.5 5.1 97 8 11 8.1 98.03     Haze
02:00 Legend Double Dagger 7.0 6.4 96 8 5 14.5 98.02     LegendNANA
03:00 Legend Double Dagger 7.9 7.0 94 9 4 16.1 97.99     LegendNANA
04:00 Legend Double Dagger 8.7 7.5 92 10 4 16.1 97.98     LegendNANA
05:00 Legend Double Dagger 9.3 7.9 91 9 8 16.1 97.91     LegendNANA
06:00 Legend Double Dagger 9.5 8.3 92 12 5 16.1 97.96     LegendNANA
07:00 Legend Double Dagger 10.2 9.0 92 13 9 14.5 97.97     LegendNANA
08:00 Legend Double Dagger 11.2 10.0 92 9 15 12.9 97.91     LegendNANA
09:00 Legend Double Dagger 11.8 10.7 93 12 15 14.5 97.94     LegendNANA
10:00 Legend Double Dagger 12.6 11.7 94 12 15 8.1 97.93     Fog
11:00 Legend Double Dagger 13.2 12.3 94 13 15 6.4 97.91     Fog
12:00 Legend Double Dagger 14.3 13.4 94 14 11 4.8 97.87     LegendNANA
13:00 Legend Double Dagger 15.9 14.1 89 18 18 16.1 97.86     LegendNANA
14:00 Legend Double Dagger 16.8 14.5 86 18 13 16.1 97.80     LegendNANA
15:00 Legend Double Dagger 17.0 14.7 86 17 17 16.1 97.78     LegendNANA
16:00 Legend Double Dagger 16.7 14.7 88 17 17 16.1 97.78     LegendNANA
17:00 Legend Double Dagger 17.0 15.2 89 15 11 16.1 97.74     LegendNANA
18:00 Legend Double Dagger 16.7 15.1 90 15 13 16.1 97.75     LegendNANA
19:00 Legend Double Dagger 16.2 14.9 92 13 9 16.1 97.75     LegendNANA
20:00 Legend Double Dagger 16.1 15.0 93 13 13 14.5 97.72     LegendNANA
21:00 Legend Double Dagger 15.4 14.3 93 13 13 11.3 97.69     LegendNANA
22:00 Legend Double Dagger 14.6 13.8 95 13 5 8.1 97.67     LegendNANA
23:00 Legend Double Dagger 14.3 13.5 95 13 9 6.4 97.63     Fog

Notes on Data Quality.

Legend

  • E = Estimated
  • M = Missing
  • NA = Not Available
  • ‡ = Partner data that is not subject to review by the National Climate Archives
Date modified: